Location: Axtheid
(49.6213°N, 11.8205°E)
Time: 13:08:28
(UTC+00:00)

Okean 1-7 Rocket - Pass Details

Date: 24 January 2021
Orbit: 615 x 650 km, 82.5° (Epoch: 25 February)

Event Time Altitude Azimuth Distance (km) Brightness Sun altitude
Rises 17:23:19 0° 195° (SSW) 2,949 7.4 -14.1°
Reaches altitude 10° 17:25:34 10° 197° (SSW) 2,046 6.6 -14.5°
Maximum altitude 17:30:06 69° 282° (WNW) 698 4.0 -15.2°
Drops below altitude 10° 17:34:41 10° 6° (N) 2,067 6.1 -15.9°
Sets 17:36:58 0° 9° (N) 2,982 6.9 -16.3°
